Location: Demre
(36.2444°N, 29.9850°E)
Time: 11:22:54
(UTC+00:00)

CZ-4 R/B - Pass Details

Date: 11 March 2026
Orbit: 491 x 538 km, 97.6° (Epoch: 11 April)

Event Time Altitude Azimuth Distance (km) Brightness Sun altitude
Exits shadow 17:29:09 28° 48° (NE) 1,025 2.3 -18.0°
Drops below altitude 10° 17:31:46 10° 10° (N) 1,798 3.9 -18.5°
Sets 17:34:03 0° 360° (N) 2,697 5.0 -19.0°
